Location: Pacheco
(37.9835°N, 122.0752°W)
Time: 10:12:34
(UTC+00:00)

Cosmos 1553 Rocket - Pass Details

Date: 13 April 2024
Orbit: 940 x 1008 km, 82.9° (Epoch: 23 May)

Event Time Altitude Azimuth Distance (km) Brightness Sun altitude
Rises 12:07:21 0° 351° (N) 3,707 7.3 -17.0°
Reaches altitude 10° 12:09:53 10° 351° (N) 2,745 6.6 -16.6°
Maximum altitude 12:16:11 80° 265° (W) 987 3.9 -15.5°
Drops below altitude 10° 12:22:19 10° 179° (S) 2,681 6.1 -14.4°
Sets 12:24:46 0° 179° (S) 3,614 6.8 -13.9°
